RJSN

Niigata Airport

Airport
ICAO code
RJSN
IATA Code
KIJ
Summary
ICAO Region
APAC
ICAO Territory
Location

Niigata, Niigata Prefecture

Serving
Niigata
Elevation
29 ft
Coordinates
37° 57' 12" N , 139° 6' 49" E
KCC
Metar
RJSN 221700Z AUTO 11004KT 9999 OVC033 02/M03 Q1025

Airport located 6.7 km northeast Niigata, Japan.

Climatology

Humid Sub-tropical climate (Köppen climate classification Cfa)

Runways

Designator Length Width Surface Rops
4/22 1311 46 ASP Yes/Yes
10/28 2499 46 ASP Yes/Yes

Airport map

Aerial View

SKYbrary Partners:

Safety knowledge contributed by: